Regional Weather Roundup
Issued by NWS

Home | Current Version | Previous Version | Text Only | Print | Product List | Glossary On
Versions: 1 2 3 4 5 6 7 8 9 10 11 12 13 14 15 16 17 18 19 20 21 22 23 24 25 26 27 28 29 30 31 32 33 34 35 36 37 38 39 40 41 42 43 44 45 46 47 48 49 50
000
ASUS44 KFWD 181910
RWRTX
NORTH TEXAS HOURLY WEATHER ROUNDUP
NATIONAL WEATHER SERVICE FORT WORTH TX
100 PM CST SUN FEB 18 2018

NOTE: "FAIR" INDICATES FEW OR NO CLOUDS BELOW 12,000 FEET WITH NO
SIGNIFICANT WEATHER AND/OR OBSTRUCTIONS TO VISIBILITY.

TXZ118-119-182000-
DALLAS/FORT WORTH METROPLEX

CITY           SKY/WX    TMP DP  RH WIND       PRES   REMARKS
DFW AIRPORT    LGT RAIN  54  52  93 SE23      29.98F FOG
DALLAS LOVE    LGT RAIN  52  51  97 SE23G30   30.00F FOG
FTW MEACHAM    CLOUDY    54  53  97 SE16G26   29.99F FOG
DAL-EXECUTIVE  RAIN      53  52  96 SE17      30.03F FOG
FTW-ALLIANCE   CLOUDY    53  52  96 S13G20    30.00F FOG
FTW-NAS-JRB    CLOUDY    54  51  90 SE12      30.00F
FTW-SPINKS     RAIN      52  52 100 SE17      30.03F
ARLINGTON      RAIN      52  52 100 SE16      30.02F FOG
GRAND PRAIRIE  CLOUDY    52  52 100 SE12G17   30.05F
ADDISON        LGT RAIN  52  50  93 SE8       30.01F FOG
MESQUITE       CLOUDY    54  52  94 SE9       30.09F FOG
LANCASTER      CLOUDY    52  52  97 SE6       30.10F FOG
$$

TXZ091>094-102>105-117-120-121-131>134-182000-
NORTH CENTRAL TEXAS

CITY           SKY/WX    TMP DP  RH WIND       PRES   REMARKS
SHRMAN/DENISON CLOUDY    50  49  96 SE7       30.03F
GAINESVILLE    CLOUDY    50  49  95 S8        30.01F FOG
BOWIE          CLOUDY    53  48  83 SE14      29.96F
BRIDGEPORT     CLOUDY    54  51  90 SE13      30.01F
DECATUR        CLOUDY    51  50  95 SE14G20   29.98S FOG
DENTON         CLOUDY    52  52 100 SE13      30.00F FOG
MCKINNEY       LGT RAIN  51  51 100 SE24      29.98F VSB 3/4
BONHAM         LGT RAIN  50  48  93 SE13      30.03F
GREENVILLE     CLOUDY    54  54 100 SE8       30.08F FOG
ROCKWALL       CLOUDY    52  52 100 SE7       30.08F FOG
TERRELL        LGT RAIN  55  52  89 SE7       30.08F
WAXAHACHIE     LGT RAIN  52  52 100 S5        30.10F VSB 1/2
CLEBURNE       LGT RAIN  52  52 100 SE15      30.06F VSB 1
GRANBURY       LGT RAIN  53  51  92 SE14G22   30.01F
$$

TXZ083>090-098>101-113>116-127>130-139>142-154-155-182000-
WESTERN NORTH TEXAS

CITY           SKY/WX    TMP DP  RH WIND       PRES   REMARKS
WICHITA FALLS  CLOUDY    54  46  74 S15       29.94F
WF-KICKAPOO    CLOUDY    55  47  74 S14G22    29.97F
VERNON         FAIR      64  42  44 S17G25    29.91F
ABILENE        FAIR      65  57  75 S15       29.93F
ABILENE-DYESS  FAIR      68  58  69 S23G29    29.91F
GRAHAM           N/A     56  52  84 SE8       29.95F
BRECKENRIDGE   CLOUDY    63  53  71 S17       29.95F
CISCO          CLOUDY    59  55  88 S20G29    29.96F
EASTLAND       CLOUDY    57  53  89 S16G23    29.96F
RANGER         PTSUNNY   54  53  97 S13G20    29.97F
MINERAL WELLS  CLOUDY    52  50  93 SE10      29.98F FOG
STEPHENVILLE   CLOUDY    53  51  92 S17G24    30.00F
COMANCHE       CLOUDY    53  53 100 SE15G22   29.99F
COLEMAN        CLOUDY    57  55  94 S12       29.97F
$$

TXZ143>147-156>162-174-175-182000-
CENTRAL TEXAS

CITY           SKY/WX    TMP DP  RH WIND       PRES   REMARKS
WACO           CLOUDY    55  52  89 S3        30.08F FOG
WACO-TSTC      CLOUDY    57  55  94 S6        30.08F FOG
WACO-MCGREGOR  CLOUDY    57  54  89 S3        30.09F
HILLSBORO      DRIZZLE   55  55 100 SE3       30.09F
CORSICANA      CLOUDY    56  56 100 SE10      30.08F FOG
MEXIA          FOG       56  55  97 SE8       30.08F VSB 1
HEARNE         CLOUDY    61  61 100 SE7       30.09F FOG
CAMERON        CLOUDY    60  59  96 S7        30.07F FOG
TEMPLE         CLOUDY    55  54  94 SW3       30.08F
KILLEEN        CLOUDY    57  53  87 SE5       30.05F
KILLEEN-SKYLRK CLOUDY    56  53  90 SE6       30.06F
FORT HOOD      CLOUDY    54  53  99 SE7       30.02F
GATESVILLE     FAIR      59  54  82 CALM      30.08F
HAMILTON       LGT RAIN  53  53 100 S7        30.07F
LAMPASAS       CLOUDY    59  54  83 SE3       30.05F
$$

TXZ095>097-106>112-122>126-135>138-148>153-164>167-182000-
EAST TEXAS

CITY           SKY/WX    TMP DP  RH WIND       PRES   REMARKS
PARIS          CLOUDY    49  47  93 SE12      30.10F
SULPHUR SPRNGS CLOUDY    54  50  88 S6        30.12F
MOUNT PLEASANT CLOUDY    51  49  90 SE8       30.12F
GILMER         CLOUDY    51  50  96 SE7       30.11F
MINEOLA        CLOUDY    54  50  87 SE6       30.10F
TYLER          FOG       54  53  97 SE7       30.09F VSB 1
LONGVIEW       FOG       53  53 100 SE6       30.10F VSB 1
MARSHALL       CLOUDY    52  50  92 S6        30.14F
ATHENS         CLOUDY    52  52 100 SE5       30.09F FOG
PALESTINE      CLOUDY    58  58 100 SE3       30.11F FOG
JACKSONVILLE   CLOUDY    58  58 100 S6        30.11F
HENDERSON      CLOUDY    56  56  99 SE6       30.12F FOG
CENTER         CLOUDY    57  56  94 SE5       30.14F
NACOGDOCHES    CLOUDY    60  59  96 S3        30.12F
LUFKIN         CLOUDY    64  61  90 SE3       30.10F
$$

SUPPLEMENTAL OBSERVATIONS (NWS FORT WORTH AREA)

CITY           SKY/WX    TMP DP  RH WIND       PRES   REMARKS
CADDO GRASSLND   N/A     50  46  87 SE8         N/A
PAT MAYSE LAKE   N/A     48  46  93 SE10        N/A
GREENVILLE       N/A     52  48  87 SE9         N/A
CEDAR HILL       N/A     54  52  94 SE12G24     N/A
LBJ GRASSLAND    N/A     52  48  87 SE9G18      N/A
POSSUM KINGDOM   N/A     57  50  77 SE9G17      N/A
GRANBURY         N/A     54  52  94 SE14G26     N/A
MCGREGOR         N/A     57  54  88 SW3         N/A
TEMPLE           N/A     55  54  94 S2          N/A
$$

SUPPLEMENTAL OBSERVATIONS (NWS NORMAN AREA)

CITY           SKY/WX    TMP DP  RH WIND       PRES   REMARKS
GOODLETT         N/A     67  49  51 S24G30    29.86F
ODELL            N/A     64  49  57 S15       29.90F
CROWELL          N/A     69  50  50 S23       29.88F
KNOX CITY        N/A     68  49  51 S17       29.91F
SEYMOUR          N/A     62  48  59 S15       29.92F
MILLERS CREEK    N/A     64  52  63 S15         N/A
$$

SUPPLEMENTAL OBSERVATIONS (NWS SAN ANGELO AREA)

CITY           SKY/WX    TMP DP  RH WIND       PRES   REMARKS
WEINERT          N/A     65  51  60 S16       29.93F
HASKELL          N/A     65  52  63 S16G24    29.92F
THROCKMORTON     N/A     60  52  76 S6        29.95F
STAMFORD         N/A     64  57  78 S17       29.94F
CLYDE            N/A     59  54  84 S18       29.95F
HAMBY            N/A     64  55  72 S17         N/A
IVIE RESERVOIR   N/A     64  59  82 SE18        N/A
COLORADO BEND    N/A     59  55  88 SE3         N/A
$$

SUPPLEMENTAL OBSERVATIONS (NWS SHREVEPORT AREA)

CITY           SKY/WX    TMP DP  RH WIND       PRES   REMARKS
CLARKSVILLE      N/A     48  45  87 SE8         N/A
TEXARKANA        N/A     52  46  82 SE3         N/A
LINDEN           N/A     52  48  87 E3          N/A
GILMER           N/A     54  52  94 SE7         N/A
HENDERSON        N/A     57  55  94 SE5         N/A
LUFKIN           N/A     63  59  88 MISG        N/A
N SABINE NF      N/A     59  55  88 MISG        N/A
S SABINE NF      N/A     63  57  82 SW3         N/A
$$

SUPPLEMENTAL OBSERVATIONS ARE A COLLECTION OF AUTOMATED INSTRUMENTS
THAT ARE MAINTAINED BY A VARIETY OF FEDERAL AND STATE AGENCIES.
CERTAIN ELEMENTS...SUCH AS HUMIDITY VALUES AND SUSTAINED WIND
SPEEDS...MAY BE APPROXIMATED.





USA.gov is the U.S. government's official web portal to all federal, state and local government web resources and services.